,,,PA_Meas_PMT16A,,PR_Meas_QMR101_102,,RH_Meas_QMH101,,SR_Meas_QMS101,,TA_Meas_QMH101,,GenWind,,GenWind,
date,time,status,PA,status,PR,status,RH,status,SR,status,TA,status,DirAvg,status,SpdAvg,
2014-05-01, 00:00:04,VALID,1010.83,VALID,0,INVALID,110.749,VALID,0,VALID,23.8925,VALID,351,VALID,0,
2014-05-01, 00:01:04,VALID,1010.82,VALID,0,INVALID,110.756,VALID,0,VALID,23.9138,VALID,351,VALID,0,
2014-05-01, 00:02:04,VALID,1010.82,VALID,0,INVALID,110.741,VALID,0,VALID,23.8943,VALID,351,VALID,0,
2014-05-01, 00:03:04,VALID,1010.8,VALID,0,INVALID,110.688,VALID,0,VALID,23.873,VALID,351,VALID,0,
2014-05-01, 00:04:04,VALID,1010.77,VALID,0,INVALID,110.741,VALID,0,VALID,23.873,VALID,351,VALID,0,
2014-05-01, 00:05:04,VALID,1010.75,VALID,0,INVALID,110.711,VALID,0,VALID,23.873,VALID,351,VALID,0,
2014-05-01, 00:06:04,VALID,1010.72,VALID,0,INVALID,110.711,VALID,0,VALID,23.8535,VALID,351,VALID,0,
2014-05-01, 00:07:04,VALID,1010.67,VALID,0,INVALID,110.703,VALID,0,VALID,23.834,VALID,351,VALID,0,
2014-05-01, 00:08:04,VALID,1010.67,VALID,0,INVALID,110.741,VALID,0,VALID,23.8553,VALID,351,VALID,0,
2014-05-01, 00:09:04,VALID,1010.65,VALID,0,INVALID,110.741,VALID,0,VALID,23.795,VALID,351,VALID,0,
2014-05-01, 00:10:04,VALID,1010.64,VALID,0,INVALID,110.749,VALID,0,VALID,23.7756,VALID,351,VALID,0,
2014-05-01, 00:11:04,VALID,1010.67,VALID,0,INVALID,110.734,VALID,0,VALID,23.7756,VALID,351,VALID,0,
2014-05-01, 00:12:04,VALID,1010.68,VALID,0,INVALID,110.734,VALID,0,VALID,23.7561,VALID,351,VALID,0,
2014-05-01, 00:13:04,VALID,1010.67,VALID,0,INVALID,110.703,VALID,0,VALID,23.795,VALID,351,VALID,0,
2014-05-01, 00:14:04,VALID,1010.72,VALID,0,INVALID,110.634,VALID,0,VALID,23.8358,VALID,351,VALID,0,
2014-05-01, 00:15:04,VALID,1010.76,VALID,0,INVALID,110.505,VALID,0,VALID,23.8943,VALID,351,VALID,0,
2014-05-01, 00:16:04,VALID,1010.77,VALID,0,INVALID,110.497,VALID,0,VALID,23.9333,VALID,351,VALID,0,
2014-05-01, 00:17:04,VALID,1010.73,VALID,0,INVALID,110.451,VALID,0,VALID,23.9528,VALID,351,VALID,0,
2014-05-01, 00:18:04,VALID,1010.74,VALID,0,INVALID,110.459,VALID,0,VALID,23.9315,VALID,351,VALID,0,
2014-05-01, 00:19:04,VALID,1010.71,VALID,0,INVALID,110.444,VALID,0,VALID,23.9333,VALID,351,VALID,0,
2014-05-01, 00:20:04,VALID,1010.7,VALID,0,INVALID,110.459,VALID,0,VALID,23.912,VALID,351,VALID,0,
2014-05-01, 00:21:04,VALID,1010.68,VALID,0,INVALID,110.474,VALID,0,VALID,23.8925,VALID,351,VALID,0,
2014-05-01, 00:22:04,VALID,1010.66,VALID,0,INVALID,110.49,VALID,0,VALID,23.9138,VALID,351,VALID,0,
2014-05-01, 00:23:04,VALID,1010.66,VALID,0,INVALID,110.52,VALID,0,VALID,23.8943,VALID,351,VALID,0,
2014-05-01, 00:24:04,VALID,1010.65,VALID,0,INVALID,110.512,VALID,0,VALID,23.8748,VALID,351,VALID,0,
2014-05-01, 00:25:04,VALID,1010.62,VALID,0,INVALID,110.497,VALID,0,VALID,23.8748,VALID,351,VALID,0,
2014-05-01, 00:26:04,VALID,1010.64,VALID,0,INVALID,110.444,VALID,0,VALID,23.8748,VALID,351,VALID,0,
2014-05-01, 00:27:04,VALID,1010.62,VALID,0,INVALID,110.421,VALID,0,VALID,23.873,VALID,351,VALID,0,
2014-05-01, 00:28:04,VALID,1010.6,VALID,0,INVALID,110.368,VALID,0,VALID,23.8925,VALID,351,VALID,0,
2014-05-01, 00:29:04,VALID,1010.6,VALID,0,INVALID,110.345,VALID,0,VALID,23.9333,VALID,351,VALID,0,
2014-05-01, 00:30:04,VALID,1010.6,VALID,0,INVALID,110.39,VALID,0,VALID,23.8925,VALID,351,VALID,0,
2014-05-01, 00:31:04,VALID,1010.6,VALID,0,INVALID,110.482,VALID,0,VALID,23.8748,VALID,351,VALID,0,
2014-05-01, 00:32:04,VALID,1010.6,VALID,0,INVALID,110.482,VALID,0,VALID,23.8358,VALID,351,VALID,0,
2014-05-01, 00:33:04,VALID,1010.6,VALID,0,INVALID,110.474,VALID,0,VALID,23.8163,VALID,351,VALID,0,
2014-05-01, 00:34:04,VALID,1010.57,VALID,0,INVALID,110.451,VALID,0,VALID,23.8163,VALID,351,VALID,0,
2014-05-01, 00:35:04,VALID,1010.6,VALID,0,INVALID,110.413,VALID,0,VALID,23.8358,VALID,351,VALID,0,
2014-05-01, 00:36:04,VALID,1010.63,VALID,0,INVALID,110.368,VALID,0,VALID,23.834,VALID,351,VALID,0,
2014-05-01, 00:37:04,VALID,1010.63,VALID,0,INVALID,110.337,VALID,0,VALID,23.8748,VALID,351,VALID,0,
2014-05-01, 00:38:04,VALID,1010.59,VALID,0,INVALID,110.36,VALID,0,VALID,23.8535,VALID,351,VALID,0,
2014-05-01, 00:39:04,VALID,1010.6,VALID,0,INVALID,110.36,VALID,0,VALID,23.8748,VALID,351,VALID,0,
2014-05-01, 00:40:04,VALID,1010.58,VALID,0,INVALID,110.337,VALID,0,VALID,23.8748,VALID,351,VALID,0,
2014-05-01, 00:41:04,VALID,1010.56,VALID,0,INVALID,110.314,VALID,0,VALID,23.8943,VALID,351,VALID,0,
2014-05-01, 00:42:04,VALID,1010.54,VALID,0,INVALID,110.314,VALID,0,VALID,23.8748,VALID,351,VALID,0,
2014-05-01, 00:43:04,VALID,1010.56,VALID,0,INVALID,110.284,VALID,0,VALID,23.8535,VALID,351,VALID,0,
2014-05-01, 00:44:04,VALID,1010.56,VALID,0,INVALID,110.322,VALID,0,VALID,23.8535,VALID,351,VALID,0,
2014-05-01, 00:45:04,VALID,1010.58,VALID,0,INVALID,110.314,VALID,0,VALID,23.8943,VALID,351,VALID,0,
2014-05-01, 00:46:04,VALID,1010.54,VALID,0,INVALID,110.314,VALID,0,VALID,23.8943,VALID,351,VALID,0,
2014-05-01, 00:47:04,VALID,1010.55,VALID,0,INVALID,110.337,VALID,0,VALID,23.873,VALID,351,VALID,0,
2014-05-01, 00:48:04,VALID,1010.53,VALID,0,INVALID,110.307,VALID,0,VALID,23.912,VALID,351,VALID,0,
2014-05-01, 00:49:04,VALID,1010.5,VALID,0,INVALID,110.276,VALID,0,VALID,23.912,VALID,351,VALID,0,
2014-05-01, 00:50:04,VALID,1010.46,VALID,0,INVALID,110.291,VALID,0,VALID,23.8925,VALID,351,VALID,0,
2014-05-01, 00:51:04,VALID,1010.48,VALID,0,INVALID,110.329,VALID,0,VALID,23.8925,VALID,351,VALID,0,
2014-05-01, 00:52:04,VALID,1010.48,VALID,0,INVALID,110.345,VALID,0,VALID,23.873,VALID,351,VALID,0,
2014-05-01, 00:53:04,VALID,1010.46,VALID,0,INVALID,110.329,VALID,0,VALID,23.873,VALID,351,VALID,0,
2014-05-01, 00:54:04,VALID,1010.47,VALID,0,INVALID,110.329,VALID,0,VALID,23.873,VALID,351,VALID,0,
2014-05-01, 00:55:04,VALID,1010.46,VALID,0,INVALID,110.337,VALID,0,VALID,23.8925,VALID,351,VALID,0,
2014-05-01, 00:56:04,VALID,1010.45,VALID,0,INVALID,110.322,VALID,0,VALID,23.9138,VALID,351,VALID,0,
2014-05-01, 00:57:04,VALID,1010.42,VALID,0,INVALID,110.291,VALID,0,VALID,23.912,VALID,351,VALID,0,
2014-05-01, 00:58:04,VALID,1010.43,VALID,0,INVALID,110.291,VALID,0,VALID,23.9138,VALID,351,VALID,0,
2014-05-01, 00:59:04,VALID,1010.41,VALID,0,INVALID,110.322,VALID,0,VALID,23.9138,VALID,351,VALID,0,
2014-05-01, 01:00:04,VALID,1010.42,VALID,0,INVALID,110.291,VALID,0,VALID,23.8943,VALID,351,VALID,0,
2014-05-01, 01:01:04,VALID,1010.39,VALID,0,INVALID,110.337,VALID,0,VALID,23.8748,VALID,351,VALID,0,
2014-05-01, 01:02:04,VALID,1010.37,VALID,0,INVALID,110.352,VALID,0,VALID,23.8748,VALID,351,VALID,0,
2014-05-01, 01:03:04,VALID,1010.39,VALID,0,INVALID,110.368,VALID,0,VALID,23.8553,VALID,351,VALID,0,
2014-05-01, 01:04:04,VALID,1010.39,VALID,0,INVALID,110.406,VALID,0,VALID,23.8145,VALID,351,VALID,0,
2014-05-01, 01:05:04,VALID,1010.37,VALID,0,INVALID,110.398,VALID,0,VALID,23.795,VALID,351,VALID,0,
2014-05-01, 01:06:04,VALID,1010.35,VALID,0,INVALID,110.383,VALID,0,VALID,23.8163,VALID,351,VALID,0,
2014-05-01, 01:07:04,VALID,1010.35,VALID,0,INVALID,110.421,VALID,0,VALID,23.7968,VALID,351,VALID,0,
2014-05-01, 01:08:04,VALID,1010.36,VALID,0,INVALID,110.497,VALID,0,VALID,23.7384,VALID,351,VALID,0,
2014-05-01, 01:09:04,VALID,1010.39,VALID,0,INVALID,110.543,VALID,0,VALID,23.6781,VALID,351,VALID,0,
2014-05-01, 01:10:04,VALID,1010.39,VALID,0,INVALID,110.573,VALID,0,VALID,23.6604,VALID,351,VALID,0,
2014-05-01, 01:11:04,VALID,1010.39,VALID,0,INVALID,110.581,VALID,0,VALID,23.6196,VALID,351,VALID,0,
2014-05-01, 01:12:04,VALID,1010.4,VALID,0,INVALID,110.589,VALID,0,VALID,23.6002,VALID,351,VALID,0,
2014-05-01, 01:13:04,VALID,1010.4,VALID,0,INVALID,110.543,VALID,0,VALID,23.6214,VALID,351,VALID,0,
2014-05-01, 01:14:04,VALID,1010.38,VALID,0,INVALID,110.551,VALID,0,VALID,23.5807,VALID,351,VALID,0,
2014-05-01, 01:15:04,VALID,1010.39,VALID,0,INVALID,110.581,VALID,0,VALID,23.6214,VALID,351,VALID,0,
2014-05-01, 01:16:04,VALID,1010.38,VALID,0,INVALID,110.512,VALID,0,VALID,23.5807,VALID,351,VALID,0,
2014-05-01, 01:17:04,VALID,1010.36,VALID,0,INVALID,110.535,VALID,0,VALID,23.5807,VALID,351,VALID,0,
2014-05-01, 01:18:04,VALID,1010.38,VALID,0,INVALID,110.497,VALID,0,VALID,23.5807,VALID,351,VALID,0,
2014-05-01, 01:19:04,VALID,1010.36,VALID,0,INVALID,110.444,VALID,0,VALID,23.6214,VALID,351,VALID,0,
2014-05-01, 01:20:04,VALID,1010.35,VALID,0,INVALID,110.451,VALID,0,VALID,23.6002,VALID,351,VALID,0,
2014-05-01, 01:21:04,VALID,1010.33,VALID,0,INVALID,110.459,VALID,0,VALID,23.6214,VALID,351,VALID,0,
2014-05-01, 01:22:04,VALID,1010.35,VALID,0,INVALID,110.429,VALID,0,VALID,23.6214,VALID,351,VALID,0,
2014-05-01, 01:23:04,VALID,1010.35,VALID,0,INVALID,110.451,VALID,0,VALID,23.6002,VALID,351,VALID,0,
2014-05-01, 01:24:04,VALID,1010.34,VALID,0,INVALID,110.421,VALID,0,VALID,23.6214,VALID,351,VALID,0,
2014-05-01, 01:25:04,VALID,1010.35,VALID,0,INVALID,110.444,VALID,0,VALID,23.5807,VALID,351,VALID,0,
2014-05-01, 01:26:04,VALID,1010.32,VALID,0,INVALID,110.444,VALID,0,VALID,23.5612,VALID,351,VALID,0,
2014-05-01, 01:27:04,VALID,1010.32,VALID,0,INVALID,110.52,VALID,0,VALID,23.5417,VALID,351,VALID,0,
2014-05-01, 01:28:04,VALID,1010.32,VALID,0,INVALID,110.558,VALID,0,VALID,23.5027,VALID,351,VALID,0,
2014-05-01, 01:29:04,VALID,1010.32,VALID,0,INVALID,110.589,VALID,0,VALID,23.485,VALID,351,VALID,0,
2014-05-01, 01:30:04,VALID,1010.28,VALID,0,INVALID,110.566,VALID,0,VALID,23.4655,VALID,351,VALID,0,
2014-05-01, 01:31:04,VALID,1010.28,VALID,0,INVALID,110.543,VALID,0,VALID,23.4655,VALID,351,VALID,0,
2014-05-01, 01:32:04,VALID,1010.27,VALID,0,INVALID,110.528,VALID,0,VALID,23.446,VALID,351,VALID,0,
2014-05-01, 01:33:04,VALID,1010.22,VALID,0,INVALID,110.52,VALID,0,VALID,23.4265,VALID,351,VALID,0,
2014-05-01, 01:34:04,VALID,1010.22,VALID,0,INVALID,110.528,VALID,0,VALID,23.4053,VALID,351,VALID,0,
2014-05-01, 01:35:04,VALID,1010.2,VALID,0,INVALID,110.512,VALID,0,VALID,23.4053,VALID,351,VALID,0,
2014-05-01, 01:36:04,VALID,1010.17,VALID,0,INVALID,110.398,VALID,0,VALID,23.4655,VALID,351,VALID,0,
2014-05-01, 01:37:04,VALID,1010.16,VALID,0,INVALID,110.398,VALID,0,VALID,23.4832,VALID,351,VALID,0,
2014-05-01, 01:38:04,VALID,1010.14,VALID,0,INVALID,110.398,VALID,0,VALID,23.5045,VALID,351,VALID,0,
2014-05-01, 01:39:04,VALID,1010.14,VALID,0,INVALID,110.368,VALID,0,VALID,23.4832,VALID,351,VALID,0,
2014-05-01, 01:40:04,VALID,1010.13,VALID,0,INVALID,110.36,VALID,0,VALID,23.4832,VALID,351,VALID,0,
2014-05-01, 01:41:04,VALID,1010.14,VALID,0,INVALID,110.368,VALID,0,VALID,23.4637,VALID,351,VALID,0,
2014-05-01, 01:42:04,VALID,1010.11,VALID,0,INVALID,110.383,VALID,0,VALID,23.5045,VALID,351,VALID,0,
2014-05-01, 01:43:04,VALID,1010.1,VALID,0,INVALID,110.39,VALID,0,VALID,23.4637,VALID,351,VALID,0,
2014-05-01, 01:44:04,VALID,1010.08,VALID,0,INVALID,110.398,VALID,0,VALID,23.4637,VALID,351,VALID,0,
2014-05-01, 01:45:04,VALID,1010.08,VALID,0,INVALID,110.406,VALID,0,VALID,23.4248,VALID,351,VALID,0,
2014-05-01, 01:46:04,VALID,1010.09,VALID,0,INVALID,110.375,VALID,0,VALID,23.4443,VALID,351,VALID,0,
2014-05-01, 01:47:04,VALID,1010.09,VALID,0,INVALID,110.36,VALID,0,VALID,23.4655,VALID,351,VALID,0,
2014-05-01, 01:48:04,VALID,1010.11,VALID,0,INVALID,110.39,VALID,0,VALID,23.4655,VALID,351,VALID,0,
2014-05-01, 01:49:04,VALID,1010.08,VALID,0,INVALID,110.406,VALID,0,VALID,23.446,VALID,351,VALID,0,
2014-05-01, 01:50:04,VALID,1010.1,VALID,0,INVALID,110.383,VALID,0,VALID,23.4443,VALID,351,VALID,0,
2014-05-01, 01:51:04,VALID,1010.09,VALID,0,INVALID,110.36,VALID,0,VALID,23.4443,VALID,351,VALID,0,
2014-05-01, 01:52:04,VALID,1010.1,VALID,0,INVALID,110.406,VALID,0,VALID,23.4053,VALID,351,VALID,0,
2014-05-01, 01:53:04,VALID,1010.09,VALID,0,INVALID,110.39,VALID,0,VALID,23.384,VALID,351,VALID,0,
2014-05-01, 01:54:04,VALID,1010.09,VALID,0,INVALID,110.314,VALID,0,VALID,23.4443,VALID,351,VALID,0,
2014-05-01, 01:55:04,VALID,1010.09,VALID,0,INVALID,110.246,VALID,0,VALID,23.4832,VALID,351,VALID,0,
2014-05-01, 01:56:04,VALID,1010.11,VALID,0,INVALID,110.207,VALID,0,VALID,23.5222,VALID,351,VALID,0,
2014-05-01, 01:57:04,VALID,1010.13,VALID,0,INVALID,110.2,VALID,0,VALID,23.5027,VALID,351,VALID,0,
2014-05-01, 01:58:04,VALID,1010.1,VALID,0,INVALID,110.253,VALID,0,VALID,23.5027,VALID,351,VALID,0,
2014-05-01, 01:59:04,VALID,1010.07,VALID,0,INVALID,110.276,VALID,0,VALID,23.4637,VALID,351,VALID,0,
2014-05-01, 02:00:04,VALID,1010.06,VALID,0,INVALID,110.322,VALID,0,VALID,23.4443,VALID,351,VALID,0,
2014-05-01, 02:01:04,VALID,1010.07,VALID,0,INVALID,110.314,VALID,0,VALID,23.4248,VALID,351,VALID,0,
2014-05-01, 02:02:04,VALID,1010.04,VALID,0,INVALID,110.276,VALID,0,VALID,23.4443,VALID,351,VALID,0,
2014-05-01, 02:03:04,VALID,1010.05,VALID,0,INVALID,110.284,VALID,0,VALID,23.4248,VALID,351,VALID,0,
2014-05-01, 02:04:04,VALID,1010.04,VALID,0,INVALID,110.253,VALID,0,VALID,23.4053,VALID,351,VALID,0,
2014-05-01, 02:05:04,VALID,1010.04,VALID,0,INVALID,110.215,VALID,0,VALID,23.4248,VALID,351,VALID,0,
2014-05-01, 02:06:04,VALID,1010,VALID,0,INVALID,110.2,VALID,0,VALID,23.4248,VALID,351,VALID,0,
2014-05-01, 02:07:04,VALID,1009.99,VALID,0,INVALID,110.131,VALID,0,VALID,23.4832,VALID,353,VALID,0,
2014-05-01, 02:08:04,VALID,1009.94,VALID,0,INVALID,110.131,VALID,0,VALID,23.4637,VALID,353,VALID,0,
2014-05-01, 02:09:04,VALID,1009.9,VALID,0,INVALID,110.131,VALID,0,VALID,23.4832,VALID,353,VALID,0,
2014-05-01, 02:10:04,VALID,1009.88,VALID,0,INVALID,110.162,VALID,0,VALID,23.4832,VALID,353,VALID,0,
2014-05-01, 02:11:04,VALID,1009.84,VALID,0,INVALID,110.154,VALID,0,VALID,23.4655,VALID,353,VALID,0,
2014-05-01, 02:12:04,VALID,1009.84,VALID,0,INVALID,110.185,VALID,0,VALID,23.4443,VALID,353,VALID,0,
2014-05-01, 02:13:04,VALID,1009.86,VALID,0,INVALID,110.215,VALID,0,VALID,23.4443,VALID,353,VALID,0,
2014-05-01, 02:14:04,VALID,1009.81,VALID,0,INVALID,110.215,VALID,0,VALID,23.4248,VALID,353,VALID,0,
2014-05-01, 02:15:04,VALID,1009.82,VALID,0,INVALID,110.207,VALID,0,VALID,23.4248,VALID,353,VALID,0,
2014-05-01, 02:16:04,VALID,1009.82,VALID,0,INVALID,110.23,VALID,0,VALID,23.4053,VALID,353,VALID,0,
2014-05-01, 02:17:04,VALID,1009.84,VALID,0,INVALID,110.207,VALID,0,VALID,23.4265,VALID,353,VALID,0,
2014-05-01, 02:18:04,VALID,1009.82,VALID,0,INVALID,110.177,VALID,0,VALID,23.4053,VALID,353,VALID,0,
2014-05-01, 02:19:04,VALID,1009.83,VALID,0,INVALID,110.2,VALID,0,VALID,23.4071,VALID,353,VALID,0,
2014-05-01, 02:20:04,VALID,1009.84,VALID,0,INVALID,110.207,VALID,0,VALID,23.3858,VALID,353,VALID,0,
2014-05-01, 02:21:04,VALID,1009.86,VALID,0,INVALID,110.23,VALID,0,VALID,23.3663,VALID,353,VALID,0,
2014-05-01, 02:22:04,VALID,1009.86,VALID,0,INVALID,110.223,VALID,0,VALID,23.3876,VALID,353,VALID,0,
2014-05-01, 02:23:04,VALID,1009.89,VALID,0,INVALID,110.23,VALID,0,VALID,23.3468,VALID,353,VALID,0,
2014-05-01, 02:24:04,VALID,1009.88,VALID,0,INVALID,110.215,VALID,0,VALID,23.3468,VALID,353,VALID,0,
2014-05-01, 02:25:04,VALID,1009.85,VALID,0,INVALID,110.238,VALID,0,VALID,23.3273,VALID,353,VALID,0,
2014-05-01, 02:26:04,VALID,1009.88,VALID,0,INVALID,110.207,VALID,0,VALID,23.3468,VALID,353,VALID,0,
2014-05-01, 02:27:04,VALID,1009.84,VALID,0,INVALID,110.215,VALID,0,VALID,23.3061,VALID,353,VALID,0,
2014-05-01, 02:28:04,VALID,1009.83,VALID,0,INVALID,110.207,VALID,0,VALID,23.3468,VALID,353,VALID,0,
2014-05-01, 02:29:04,VALID,1009.84,VALID,0,INVALID,110.185,VALID,0,VALID,23.3468,VALID,353,VALID,0,
2014-05-01, 02:30:04,VALID,1009.82,VALID,0,INVALID,110.185,VALID,0,VALID,23.3486,VALID,353,VALID,0,
2014-05-01, 02:31:04,VALID,1009.77,VALID,0,INVALID,110.223,VALID,0,VALID,23.3079,VALID,353,VALID,0,
2014-05-01, 02:32:04,VALID,1009.78,VALID,0,INVALID,110.238,VALID,0,VALID,23.2884,VALID,353,VALID,0,
2014-05-01, 02:33:04,VALID,1009.71,VALID,0,INVALID,110.253,VALID,0,VALID,23.3079,VALID,353,VALID,0,
2014-05-01, 02:34:04,VALID,1009.69,VALID,0,INVALID,110.246,VALID,0,VALID,23.2901,VALID,353,VALID,0,
2014-05-01, 02:35:04,VALID,1009.65,VALID,0,INVALID,110.268,VALID,0,VALID,23.2282,VALID,353,VALID,0,
2014-05-01, 02:36:04,VALID,1009.6,VALID,0,INVALID,110.284,VALID,0,VALID,23.2299,VALID,353,VALID,0,
2014-05-01, 02:37:04,VALID,1009.59,VALID,0,INVALID,110.268,VALID,0,VALID,23.2104,VALID,353,VALID,0,
2014-05-01, 02:38:04,VALID,1009.61,VALID,0,INVALID,110.268,VALID,0,VALID,23.2104,VALID,353,VALID,0,
2014-05-01, 02:39:04,VALID,1009.62,VALID,0,INVALID,110.238,VALID,0,VALID,23.2104,VALID,353,VALID,0,
2014-05-01, 02:40:04,VALID,1009.62,VALID,0,INVALID,110.253,VALID,0,VALID,23.1909,VALID,353,VALID,0,
2014-05-01, 02:41:04,VALID,1009.6,VALID,0,INVALID,110.23,VALID,0,VALID,23.2104,VALID,353,VALID,0,
2014-05-01, 02:42:04,VALID,1009.64,VALID,0,INVALID,110.215,VALID,0,VALID,23.2104,VALID,353,VALID,0,
2014-05-01, 02:43:04,VALID,1009.65,VALID,0,INVALID,110.223,VALID,0,VALID,23.2104,VALID,353,VALID,0,
2014-05-01, 02:44:04,VALID,1009.68,VALID,0,INVALID,110.207,VALID,0,VALID,23.2104,VALID,353,VALID,0,
2014-05-01, 02:45:04,VALID,1009.68,VALID,0,INVALID,110.2,VALID,0,VALID,23.2104,VALID,353,VALID,0,
2014-05-01, 02:46:04,VALID,1009.71,VALID,0,INVALID,110.185,VALID,0,VALID,23.2104,VALID,353,VALID,0,
2014-05-01, 02:47:04,VALID,1009.71,VALID,0,INVALID,110.169,VALID,0,VALID,23.2104,VALID,353,VALID,0,
2014-05-01, 02:48:04,VALID,1009.76,VALID,0,INVALID,110.192,VALID,0,VALID,23.2104,VALID,353,VALID,0,
2014-05-01, 02:49:04,VALID,1009.79,VALID,0,INVALID,110.185,VALID,0,VALID,23.1715,VALID,353,VALID,0,
2014-05-01, 02:50:04,VALID,1009.78,VALID,0,INVALID,110.207,VALID,0,VALID,23.1715,VALID,353,VALID,0,
2014-05-01, 02:51:04,VALID,1009.8,VALID,0,INVALID,110.223,VALID,0,VALID,23.1325,VALID,353,VALID,0,
2014-05-01, 02:52:04,VALID,1009.78,VALID,0,INVALID,110.192,VALID,0,VALID,23.1537,VALID,353,VALID,0,
2014-05-01, 02:53:04,VALID,1009.8,VALID,0,INVALID,110.192,VALID,0,VALID,23.1342,VALID,353,VALID,0,
2014-05-01, 02:54:04,VALID,1009.8,VALID,0,INVALID,110.169,VALID,0,VALID,23.1342,VALID,353,VALID,0,
2014-05-01, 02:55:04,VALID,1009.78,VALID,0,INVALID,110.169,VALID,0,VALID,23.113,VALID,353,VALID,0,
2014-05-01, 02:56:04,VALID,1009.75,VALID,0,INVALID,110.185,VALID,0,VALID,23.0935,VALID,353,VALID,0,
2014-05-01, 02:57:04,VALID,1009.74,VALID,0,INVALID,110.108,VALID,0,VALID,23.1325,VALID,353,VALID,0,
2014-05-01, 02:58:04,VALID,1009.74,VALID,0,INVALID,110.085,VALID,0,VALID,23.1537,VALID,353,VALID,0,
2014-05-01, 02:59:04,VALID,1009.73,VALID,0,INVALID,110.04,VALID,0,VALID,23.1732,VALID,353,VALID,0,
2014-05-01, 03:00:04,VALID,1009.7,VALID,0,INVALID,110.017,VALID,0,VALID,23.1715,VALID,353,VALID,0,
2014-05-01, 03:01:04,VALID,1009.71,VALID,0,INVALID,110.032,VALID,0,VALID,23.152,VALID,353,VALID,0,
2014-05-01, 03:02:04,VALID,1009.72,VALID,0,INVALID,110.055,VALID,0,VALID,23.1732,VALID,353,VALID,0,
2014-05-01, 03:03:04,VALID,1009.69,VALID,0,INVALID,110.063,VALID,0,VALID,23.1537,VALID,353,VALID,0,
2014-05-01, 03:04:04,VALID,1009.71,VALID,0,INVALID,110.085,VALID,0,VALID,23.1148,VALID,353,VALID,0,
2014-05-01, 03:05:04,VALID,1009.7,VALID,0,INVALID,110.116,VALID,0,VALID,23.0935,VALID,353,VALID,0,
2014-05-01, 03:06:04,VALID,1009.68,VALID,0,INVALID,110.162,VALID,0,VALID,23.074,VALID,353,VALID,0,
2014-05-01, 03:07:04,VALID,1009.67,VALID,0,INVALID,110.154,VALID,0,VALID,23.0545,VALID,353,VALID,0,
2014-05-01, 03:08:04,VALID,1009.67,VALID,0,INVALID,110.116,VALID,0,VALID,23.0545,VALID,353,VALID,0,
2014-05-01, 03:09:04,VALID,1009.69,VALID,0,INVALID,110.063,VALID,0,VALID,23.0935,VALID,353,VALID,0,
2014-05-01, 03:10:04,VALID,1009.71,VALID,0,INVALID,110.07,VALID,0,VALID,23.0935,VALID,353,VALID,0,
2014-05-01, 03:11:04,VALID,1009.7,VALID,0,INVALID,110.07,VALID,0,VALID,23.0935,VALID,353,VALID,0,
2014-05-01, 03:12:04,VALID,1009.71,VALID,0,INVALID,110.07,VALID,0,VALID,23.1148,VALID,353,VALID,0,
2014-05-01, 03:13:04,VALID,1009.71,VALID,0,INVALID,110.078,VALID,0,VALID,23.0935,VALID,353,VALID,0,
2014-05-01, 03:14:04,VALID,1009.71,VALID,0,INVALID,110.063,VALID,0,VALID,23.1148,VALID,353,VALID,0,
2014-05-01, 03:15:04,VALID,1009.69,VALID,0,INVALID,110.017,VALID,0,VALID,23.113,VALID,353,VALID,0,
2014-05-01, 03:16:04,VALID,1009.65,VALID,0,INVALID,110.009,VALID,0,VALID,23.0935,VALID,353,VALID,0,
2014-05-01, 03:17:04,VALID,1009.64,VALID,0,INVALID,109.979,VALID,0,VALID,23.1148,VALID,353,VALID,0,
2014-05-01, 03:18:04,VALID,1009.65,VALID,0,INVALID,110.001,VALID,0,VALID,23.1148,VALID,353,VALID,0,
2014-05-01, 03:19:04,VALID,1009.64,VALID,0,INVALID,109.994,VALID,0,VALID,23.074,VALID,353,VALID,0,
2014-05-01, 03:20:04,VALID,1009.66,VALID,0,INVALID,109.986,VALID,0,VALID,23.074,VALID,353,VALID,0,
2014-05-01, 03:21:04,VALID,1009.68,VALID,0,INVALID,110.001,VALID,0,VALID,23.0545,VALID,353,VALID,0,
2014-05-01, 03:22:04,VALID,1009.63,VALID,0,INVALID,110.032,VALID,0,VALID,23.0563,VALID,353,VALID,0,
2014-05-01, 03:23:04,VALID,1009.64,VALID,0,INVALID,110.009,VALID,0,VALID,23.0351,VALID,353,VALID,0,
2014-05-01, 03:24:04,VALID,1009.59,VALID,0,INVALID,109.971,VALID,0,VALID,23.0758,VALID,353,VALID,0,
2014-05-01, 03:25:04,VALID,1009.56,VALID,0,INVALID,109.971,VALID,0,VALID,23.0563,VALID,353,VALID,0,
2014-05-01, 03:26:04,VALID,1009.54,VALID,0,INVALID,109.986,VALID,0,VALID,23.0351,VALID,353,VALID,0,
2014-05-01, 03:27:04,VALID,1009.54,VALID,0,INVALID,109.979,VALID,0,VALID,23.0173,VALID,353,VALID,0,
2014-05-01, 03:28:04,VALID,1009.54,VALID,0,INVALID,109.971,VALID,0,VALID,23.0156,VALID,353,VALID,0,
2014-05-01, 03:29:04,VALID,1009.53,VALID,0,INVALID,109.979,VALID,0,VALID,22.9961,VALID,353,VALID,0,
2014-05-01, 03:30:04,VALID,1009.56,VALID,0,INVALID,109.971,VALID,0,VALID,22.9766,VALID,353,VALID,0,
2014-05-01, 03:31:04,VALID,1009.53,VALID,0,INVALID,110.009,VALID,0,VALID,22.9571,VALID,353,VALID,0,
2014-05-01, 03:32:04,VALID,1009.57,VALID,0,INVALID,110.009,VALID,0,VALID,22.9376,VALID,353,VALID,0,
2014-05-01, 03:33:04,VALID,1009.56,VALID,0,INVALID,110.001,VALID,0,VALID,22.9182,VALID,353,VALID,0,
2014-05-01, 03:34:04,VALID,1009.56,VALID,0,INVALID,109.994,VALID,0,VALID,22.9394,VALID,353,VALID,0,
2014-05-01, 03:35:04,VALID,1009.58,VALID,0,INVALID,109.986,VALID,0,VALID,22.9182,VALID,353,VALID,0,
2014-05-01, 03:36:04,VALID,1009.58,VALID,0,INVALID,109.94,VALID,0,VALID,22.9376,VALID,353,VALID,0,
2014-05-01, 03:37:04,VALID,1009.58,VALID,0,INVALID,109.879,VALID,0.112112,VALID,22.9571,VALID,353,VALID,0,
2014-05-01, 03:38:04,VALID,1009.61,VALID,0,INVALID,109.864,VALID,0,VALID,22.9766,VALID,353,VALID,0,
2014-05-01, 03:39:04,VALID,1009.63,VALID,0,INVALID,109.864,VALID,0.112112,VALID,22.9766,VALID,353,VALID,0,
2014-05-01, 03:40:04,VALID,1009.65,VALID,0,INVALID,109.864,VALID,0,VALID,22.9961,VALID,353,VALID,0,
2014-05-01, 03:41:04,VALID,1009.67,VALID,0,INVALID,109.879,VALID,0.112112,VALID,22.9749,VALID,353,VALID,0,
2014-05-01, 03:42:04,VALID,1009.69,VALID,0,INVALID,109.91,VALID,0,VALID,22.9571,VALID,353,VALID,0,
2014-05-01, 03:43:04,VALID,1009.69,VALID,0,INVALID,109.902,VALID,0,VALID,22.9164,VALID,353,VALID,0,
2014-05-01, 03:44:04,VALID,1009.7,VALID,0,INVALID,109.925,VALID,0,VALID,22.8969,VALID,353,VALID,0,
2014-05-01, 03:45:04,VALID,1009.71,VALID,0,INVALID,109.91,VALID,0.112112,VALID,22.8987,VALID,353,VALID,0,
2014-05-01, 03:46:04,VALID,1009.7,VALID,0,INVALID,109.933,VALID,0.112112,VALID,22.858,VALID,353,VALID,0,
2014-05-01, 03:47:04,VALID,1009.7,VALID,0,INVALID,109.956,VALID,0.112112,VALID,22.8402,VALID,353,VALID,0,
2014-05-01, 03:48:04,VALID,1009.68,VALID,0,INVALID,109.956,VALID,0,VALID,22.8207,VALID,353,VALID,0,
2014-05-01, 03:49:04,VALID,1009.68,VALID,0,INVALID,109.963,VALID,0,VALID,22.8207,VALID,353,VALID,0,
2014-05-01, 03:50:04,VALID,1009.69,VALID,0,INVALID,109.925,VALID,0,VALID,22.8207,VALID,353,VALID,0,
2014-05-01, 03:51:04,VALID,1009.7,VALID,0,INVALID,109.895,VALID,0,VALID,22.8207,VALID,353,VALID,0,
2014-05-01, 03:52:04,VALID,1009.68,VALID,0,INVALID,109.841,VALID,0,VALID,22.8402,VALID,353,VALID,0,
2014-05-01, 03:53:04,VALID,1009.71,VALID,0,INVALID,109.818,VALID,0,VALID,22.8597,VALID,353,VALID,0,
2014-05-01, 03:54:04,VALID,1009.66,VALID,0,INVALID,109.796,VALID,0,VALID,22.8597,VALID,353,VALID,0,
2014-05-01, 03:55:04,VALID,1009.64,VALID,0,INVALID,109.826,VALID,0,VALID,22.8597,VALID,353,VALID,0,